Location: Aulus
(42.7909°N, 1.3399°E)
Time: 06:50:36
(UTC+00:00)

deb Kosmos- 1980 - Pass Details

Date: 15 October 2025
Orbit: 834 x 854 km, 71.0° (Epoch: 17 November)

Event Time Altitude Azimuth Distance (km) Brightness Sun altitude
Rises 20:08:38 0° 339° (NNW) 3,402 ? -32.8°
Reaches altitude 10° 20:11:10 10° 344° (NNW) 2,461 ? -33.2°
Enters shadow 20:13:31 25° 355° (N) 1,647 ? -33.6°
